Kingston, Jamaica

3:51 AM EST on January 21, 2018 (GMT -0500)
Norman Manley International

Weather History for MKJP - March, 2011

Change the Weather History Date:

Thursday, March 10, 2011

  Actual Average Record
Temperature  
Mean Temperature 78 °F -  
Max Temperature 86 °F 84 °F 89 °F (2007)
Min Temperature 71 °F 75 °F 68 °F (2013)
Cooling Degree Days 14    
Growing Degree Days 28 (Base 50)    
Moisture  
Dew Point 62 °F    
Average Humidity 62    
Maximum Humidity 73    
Minimum Humidity 48    
Precipitation  
Precipitation 0.00 in - - ()
Sea Level Pressure  
Sea Level Pressure 30.00 in    
Wind  
Wind Speed 5 mph ()    
Max Wind Speed 12 mph    
Max Gust Speed -    
Visibility 6.4 miles    
Events Rain , Thunderstorm    
Averages and records for this station are not official NWS values.
T = Trace of Precipitation, MM = Missing Value Source: Averaged Metar Reports

Daily Weather History Graph

Daily Weather History Graph

Search for Another Location

Airport or City:

Trip Planner

Search our weather history database for the weather conditions in past years. The results will help you decide how hot, cold, wet, or windy it might be!

Date:

Astronomy

Mar. 10, 2011 Rise Set
Actual Time 6:19 AM EST 6:15 PM EST
Civil Twilight 5:57 AM EST 6:37 PM EST
Nautical Twilight 5:32 AM EST 7:02 PM EST
Astronomical Twilight 5:07 AM EST 7:27 PM EST
Moon 9:43 AM EST (3/10) 11:09 PM EST (3/10)
Length of Visible Light 12h 39m
Length of Day
11h 56m
Waxing Crescent, 28% of the Moon is Illuminated
Mar 10
Waxing Crescent
Mar 12
First Quarter
Mar 19
Full
Mar 26
Last Quarter
Apr 3
New

Hourly Weather History & Observations

Time (EST) Temp. Heat Index Dew Point Humidity Pressure Visibility Wind Dir Wind Speed Gust Speed Precip Events Conditions
12:00 AM - - - N/A% 30.01 in 6.2 mi NW 9.2 mph - N/A   Partly Cloudy
1:00 AM 74 °F - 63 °F 60% 30.01 in 4 mi NNW 6.9 mph - -   Haze
1:00 AM 73.4 °F - 62.6 °F 69% 30.01 in 6.2 mi NNW 6.9 mph - N/A   Partly Cloudy
2:00 AM 73.4 °F - 62.6 °F 69% 29.98 in 6.2 mi North 5.8 mph - N/A   Partly Cloudy
3:00 AM 73.4 °F - 62.6 °F 69% 29.98 in 6.2 mi North 3.5 mph - N/A   Partly Cloudy
4:00 AM 74 °F - 63 °F 61% 29.98 in 4 mi North 2.3 mph - -   Haze
4:00 AM 75.2 °F - 62.6 °F 65% 29.98 in 6.2 mi North 2.3 mph - N/A   Partly Cloudy
5:00 AM 73.4 °F - 62.6 °F 69% 29.98 in 6.2 mi North 2.3 mph - N/A   Partly Cloudy
5:10 AM 73.4 °F - 62.6 °F 69% 30.01 in 6.2 mi Calm Calm - N/A   Partly Cloudy
6:00 AM 73.4 °F - 62.6 °F 69% 30.01 in 6.2 mi Calm Calm - N/A   Partly Cloudy
7:00 AM 73 °F - 62 °F 61% 30.02 in 4 mi North 4.6 mph - -   Haze
7:00 AM 73.4 °F - 62.6 °F 69% 30.01 in 6.2 mi North 4.6 mph - N/A   Partly Cloudy
8:00 AM 73.4 °F - 59.0 °F 61% 30.01 in 6.2 mi NNW 4.6 mph - N/A   Partly Cloudy
9:00 AM - - - N/A% - - North - - N/A   Unknown
10:00 AM 78 °F - 62 °F 48% 30.05 in 19 mi SSW 4.6 mph - -   Scattered Clouds
10:00 AM 78.8 °F - 62.6 °F 57% 30.04 in 6.2 mi SSW 4.6 mph - N/A   Partly Cloudy
11:00 AM 78.8 °F - 62.6 °F 57% 30.04 in 6.2 mi South 5.8 mph - N/A   Partly Cloudy
12:00 PM 80.6 °F 81.8 °F 62.6 °F 54% 30.01 in 6.2 mi South 8.1 mph - N/A   Partly Cloudy
1:00 PM 80.6 °F 81.5 °F 60.8 °F 51% 29.98 in 6.2 mi South 8.1 mph - N/A   Partly Cloudy
2:00 PM 80.6 °F 81.5 °F 60.8 °F 51% 29.98 in 6.2 mi SSE 6.9 mph - N/A   Partly Cloudy
3:00 PM 80.6 °F 81.8 °F 62.6 °F 54% 29.95 in 6.2 mi SSE 8.1 mph - N/A   Partly Cloudy
4:00 PM 80.6 °F 81.8 °F 62.6 °F 54% 29.92 in 6.2 mi SE 11.5 mph - N/A   Partly Cloudy
5:00 PM 78.8 °F - 62.6 °F 57% 29.95 in 6.2 mi SSE 10.4 mph - N/A   Partly Cloudy
6:00 PM 78.8 °F - 62.6 °F 57% 29.95 in 6.2 mi South 6.9 mph - N/A   Scattered Clouds
7:00 PM 75 °F - 63 °F 57% 29.98 in 9 mi WNW 10.4 mph - - Rain Light Rain Showers
7:00 PM 77.0 °F - 66.2 °F 69% 29.98 in 6.2 mi West 6.9 mph - N/A Thunderstorm Scattered Clouds
8:00 PM 75.2 °F - 62.6 °F 65% 29.98 in 6.2 mi West 9.2 mph - N/A   Mostly Cloudy
9:00 PM 73.4 °F - 64.4 °F 73% 30.04 in 6.2 mi West 8.1 mph - N/A   Mostly Cloudy
10:00 PM 72 °F - 62 °F 64% 30.04 in 4 mi NW 5.8 mph - -   Haze
10:00 PM 71.6 °F - 62.6 °F 73% 30.04 in 6.2 mi NW 5.8 mph - N/A   Mostly Cloudy
11:00 PM 73.4 °F - 60.8 °F 65% 30.01 in 6.2 mi West 6.9 mph - N/A   Mostly Cloudy